Barcelona, Spain

5:20 AM CEST on June 27, 2017 (GMT +0200)
El Prat

Weather History for LEBL - January, 2013

Change the Weather History Date:

Thursday, January 3, 2013

  Actual Average Record
Temperature  
Mean Temperature 50 °F -  
Max Temperature 60 °F 54 °F 69 °F (1999)
Min Temperature 39 °F 40 °F 38 °F (2017)
Degree Days  
Heating Degree Days 16    
Moisture  
Dew Point 35 °F    
Average Humidity 64    
Maximum Humidity 87    
Minimum Humidity 29    
Precipitation  
Precipitation 0.00 in 0.06 in - ()
Sea Level Pressure  
Sea Level Pressure 30.54 in    
Wind  
Wind Speed 11 mph ()    
Max Wind Speed 20 mph    
Max Gust Speed 30 mph    
Visibility 7.5 miles    
Events      
Averages and records for this station are not official NWS values.
T = Trace of Precipitation, MM = Missing Value Source: Averaged Metar Reports

Daily Weather History Graph

Daily Weather History Graph

Search for Another Location

Airport or City:

Trip Planner

Search our weather history database for the weather conditions in past years. The results will help you decide how hot, cold, wet, or windy it might be!

Date:

Astronomy

Jan. 03, 2013 Rise Set
Actual Time 8:17 AM CET 5:35 PM CET
Civil Twilight 7:46 AM CET 6:06 PM CET
Nautical Twilight 7:12 AM CET 6:40 PM CET
Astronomical Twilight 6:38 AM CET 7:14 PM CET
Moon 11:58 PM CET (1/3) 11:17 AM CET (1/3)
Length of Visible Light 10h 19m
Length of Day
9h 17m
Waning Gibbous, 68% of the Moon is Illuminated
Jan 3
Waning Gibbous
Jan 5
Last Quarter
Jan 11
New
Jan 19
First Quarter
Jan 27
Full

Hourly Weather History & Observations

Time (CET) Temp. Windchill Dew Point Humidity Pressure Visibility Wind Dir Wind Speed Gust Speed Precip Events Conditions
12:00 AM 44.6 °F 38.8 °F 39.2 °F 81% 30.36 in 6.2 mi NNW 11.5 mph - N/A   Partly Cloudy
12:30 AM 44.6 °F 38.8 °F 39.2 °F 81% 30.36 in 6.2 mi NNW 11.5 mph - N/A   Partly Cloudy
1:00 AM 43 °F - 37 °F 72% 30.39 in 11 mi North 12.7 mph - -   Scattered Clouds
1:00 AM 44.6 °F 38.8 °F 39.2 °F 81% 30.36 in 6.2 mi NW 11.5 mph - N/A   Partly Cloudy
1:30 AM 44.6 °F 38.4 °F 39.2 °F 81% 30.39 in 6.2 mi NNW 12.7 mph - N/A   Partly Cloudy
2:00 AM 42.8 °F 35.8 °F 39.2 °F 87% 30.39 in 6.2 mi NNW 13.8 mph - N/A   Partly Cloudy
2:30 AM 42.8 °F 35.4 °F 37.4 °F 81% 30.39 in 6.2 mi NNW 15.0 mph - N/A   Partly Cloudy
3:00 AM 41.0 °F 32.8 °F 37.4 °F 87% 30.42 in 6.2 mi NW 16.1 mph - N/A   Partly Cloudy
3:30 AM 41.0 °F 32.8 °F 37.4 °F 87% 30.42 in 6.2 mi NNW 16.1 mph - N/A   Partly Cloudy
4:00 AM 41.0 °F 33.5 °F 35.6 °F 81% 30.42 in 6.2 mi NNW 13.8 mph - N/A   Partly Cloudy
4:30 AM 41.0 °F 32.8 °F 35.6 °F 81% 30.42 in 6.2 mi NNW 16.1 mph - N/A   Partly Cloudy
5:00 AM 41.0 °F 33.1 °F 35.6 °F 81% 30.45 in 6.2 mi NNW 15.0 mph - N/A   Partly Cloudy
5:30 AM 41.0 °F 32.8 °F 35.6 °F 81% 30.45 in 6.2 mi NNW 16.1 mph - N/A   Partly Cloudy
6:00 AM 41.0 °F 32.2 °F 35.6 °F 81% 30.45 in 6.2 mi NW 18.4 mph - N/A   Partly Cloudy
6:30 AM 41.0 °F 32.5 °F 35.6 °F 81% 30.48 in 6.2 mi NNW 17.3 mph - N/A   Partly Cloudy
7:00 AM 40 °F - 33 °F 66% 30.51 in 16 mi North 15.0 mph - -   Scattered Clouds
7:00 AM 41.0 °F 33.5 °F 33.8 °F 76% 30.48 in 6.2 mi NNW 13.8 mph - N/A   Partly Cloudy
7:30 AM 41.0 °F 32.8 °F 33.8 °F 76% 30.51 in 6.2 mi NNW 16.1 mph - N/A   Partly Cloudy
8:00 AM 41.0 °F 31.9 °F 33.8 °F 76% 30.51 in 6.2 mi NW 19.6 mph - N/A   Partly Cloudy
8:30 AM 41.0 °F 32.8 °F 33.8 °F 76% 30.54 in 6.2 mi NNW 16.1 mph - N/A   Scattered Clouds
9:00 AM 41.0 °F 31.9 °F 33.8 °F 76% 30.54 in 6.2 mi NW 19.6 mph - N/A   Scattered Clouds
9:30 AM 41.0 °F 31.9 °F 33.8 °F 76% 30.54 in 6.2 mi NNW 19.6 mph - N/A   Scattered Clouds
10:00 AM 42.8 °F 34.5 °F 33.8 °F 70% 30.57 in 6.2 mi NW 18.4 mph - N/A   Scattered Clouds
10:30 AM 42.8 °F 35.4 °F 33.8 °F 70% 30.57 in 6.2 mi NNW 15.0 mph - N/A   Scattered Clouds
11:00 AM 46.4 °F 40.4 °F 33.8 °F 62% 30.60 in 6.2 mi NNW 13.8 mph - N/A   Scattered Clouds
11:30 AM 48.2 °F - 33.8 °F 58% 30.60 in 6.2 mi NNW 15.0 mph - N/A   Scattered Clouds
12:00 PM 50.0 °F - 33.8 °F 54% 30.60 in 6.2 mi NNW 13.8 mph - N/A   Scattered Clouds
12:30 PM 53.6 °F - 33.8 °F 47% 30.60 in 6.2 mi NW 12.7 mph - N/A   Scattered Clouds
1:00 PM 54 °F - 31 °F 29% 30.59 in 19 mi North 15.0 mph - -   Scattered Clouds
1:00 PM 55.4 °F - 32.0 °F 41% 30.60 in 6.2 mi NW 12.7 mph 29.9 mph N/A   Partly Cloudy
2:00 PM 57.2 °F - 30.2 °F 36% 30.57 in - NW 10.4 mph - N/A   Clear
2:30 PM 59.0 °F - 32.0 °F 36% 30.57 in - NW 6.9 mph - N/A   Clear
3:00 PM 59.0 °F - 32.0 °F 36% 30.57 in - NNE 8.1 mph - N/A   Clear
3:30 PM 60.8 °F - 30.2 °F 31% 30.57 in - East 6.9 mph - N/A   Clear
4:00 PM 60.8 °F - 28.4 °F 29% 30.57 in - ENE 6.9 mph - N/A   Clear
4:30 PM 59.0 °F - 28.4 °F 31% 30.60 in - ENE 5.8 mph - N/A   Clear
5:00 PM 59.0 °F - 30.2 °F 34% 30.60 in - East 4.6 mph - N/A   Clear
5:30 PM 57.2 °F - 32.0 °F 38% 30.60 in - Variable 2.3 mph - N/A   Clear
6:00 PM 55.4 °F - 44.6 °F 67% 30.63 in - East 3.5 mph - N/A   Clear
6:30 PM 53.6 °F - 44.6 °F 72% 30.63 in - East 3.5 mph - N/A   Clear
7:00 PM 49 °F - 36 °F 51% 30.65 in 19 mi WNW 5.8 mph - -  
7:00 PM 50.0 °F - 37.4 °F 62% 30.63 in - WNW 4.6 mph - N/A   Clear
7:30 PM 50.0 °F - 37.4 °F 62% 30.66 in - NW 5.8 mph - N/A   Clear
8:00 PM 48.2 °F - 35.6 °F 62% 30.66 in - NNW 8.1 mph - N/A   Clear
8:30 PM 48.2 °F - 35.6 °F 62% 30.66 in - NW 5.8 mph - N/A   Clear
9:00 PM 48.2 °F - 33.8 °F 58% 30.66 in - NNW 6.9 mph - N/A   Clear
9:30 PM 48.2 °F - 33.8 °F 58% 30.66 in - NNW 6.9 mph - N/A   Clear
10:00 PM 48.2 °F - 33.8 °F 58% 30.66 in - NW 8.1 mph - N/A   Clear
10:30 PM 48.2 °F - 33.8 °F 58% 30.66 in - NW 9.2 mph - N/A   Clear
11:00 PM 46.4 °F 41.5 °F 33.8 °F 62% 30.66 in - NNW 10.4 mph 24.2 mph N/A   Clear
11:30 PM 46.4 °F 40.7 °F 33.8 °F 62% 30.66 in - NNW 12.7 mph - N/A   Clear